Zurück zum Katalog

KOSMOS-2543 PROJECTILE

AktivMilitärSSO
NORAD 45915·PAYLOAD·🇷🇺 Russia
Dieser Satellitenname wurde noch nicht durch offizielle Quellen bestätigt.

Gestartet Nov 25, 2019 von Plesetsk Cosmodrome

Loading…

Nächste Überflüge (nächste 24 Stunden)

TLE

AktuellSource: Space-Track

Epoche: Sep 14, 2026, 14:58 UTC

1 45915U 19079E   26257.62394675  .00001880  00000-0  17076-3 0  9995
2 45915  97.6687 258.9831 0169943  53.3949 308.2764 14.86050130332938

Verfolge KOSMOS-2543 PROJECTILE in Echtzeit mit AllMySat

Download on the App Store